| time (UTC) | temp C | wind direction | speed KPH | gust KPH | rain 1hr cm | rain 24hr cm | rain mn cm | humidity % | barometer mb |
| 20260508030004 | 11 | 254 | 4.8 | 11.3 | 0.00 | 0.23 | 0.20 | 46 | 1009.0 |
| 20260508025504 | 11 | 251 | 3.2 | 12.9 | 0.00 | 0.23 | 0.20 | 46 | 1009.0 |
| 20260508025008 | 11 | 252 | 4.8 | 14.5 | 0.00 | 0.23 | 0.20 | 46 | 1009.0 |
| 20260508024504 | 11 | 292 | 6.4 | 12.9 | 0.00 | 0.23 | 0.20 | 46 | 1009.1 |
| 20260508024008 | 11 | 270 | 6.4 | 16.1 | 0.00 | 0.23 | 0.20 | 45 | 1009.0 |
| 20260508023504 | 11 | 238 | 4.8 | 12.9 | 0.00 | 0.23 | 0.20 | 46 | 1009.0 |
| 20260508023008 | 11 | 284 | 6.4 | 12.9 | 0.00 | 0.23 | 0.20 | 45 | 1009.0 |
| 20260508022504 | 11 | 244 | 6.4 | 16.1 | 0.00 | 0.23 | 0.20 | 45 | 1009.0 |
| 20260508022008 | 11 | 255 | 4.8 | 12.9 | 0.00 | 0.23 | 0.20 | 45 | 1009.1 |
| 20260508021505 | 11 | 274 | 4.8 | 11.3 | 0.00 | 0.23 | 0.20 | 45 | 1009.1 |
| 20260508021008 | 11 | 260 | 3.2 | 19.3 | 0.00 | 0.23 | 0.20 | 45 | 1009.2 |
| 20260508020504 | 11 | 257 | 4.8 | 12.9 | 0.00 | 0.23 | 0.20 | 45 | 1009.1 |
| 20260508020004 | 11 | 257 | 3.2 | 11.3 | 0.00 | 0.23 | 0.20 | 45 | 1009.0 |
| 20260508015504 | 12 | 267 | 4.8 | 8.0 | 0.00 | 0.23 | 0.20 | 44 | 1009.0 |
| 20260508015008 | 12 | 250 | 4.8 | 4.8 | 0.00 | 0.23 | 0.20 | 43 | 1009.0 |
| 20260508014504 | 12 | 268 | 3.2 | 9.7 | 0.00 | 0.23 | 0.20 | 43 | 1008.9 |
| 20260508013504 | 12 | 243 | 4.8 | 11.3 | 0.00 | 0.23 | 0.20 | 42 | 1008.8 |
| 20260508013008 | 12 | 284 | 4.8 | 12.9 | 0.00 | 0.23 | 0.20 | 42 | 1008.7 |
| 20260508012504 | 12 | 279 | 4.8 | 12.9 | 0.00 | 0.23 | 0.20 | 42 | 1008.7 |
| 20260508012008 | 12 | 273 | 3.2 | 8.0 | 0.00 | 0.23 | 0.20 | 41 | 1008.6 |
| 20260508011504 | 12 | 259 | 4.8 | 12.9 | 0.00 | 0.23 | 0.20 | 40 | 1008.7 |
| 20260508011008 | 12 | 268 | 4.8 | 14.5 | 0.00 | 0.23 | 0.20 | 40 | 1008.6 |
| 20260508010505 | 12 | 272 | 4.8 | 16.1 | 0.00 | 0.23 | 0.20 | 40 | 1008.5 |
| 20260508010004 | 12 | 269 | 6.4 | 11.3 | 0.00 | 0.23 | 0.20 | 39 | 1008.3 |
| 20260508005504 | 12 | 245 | 4.8 | 11.3 | 0.00 | 0.23 | 0.20 | 40 | 1008.1 |
| 20260508005008 | 12 | 267 | 3.2 | 8.0 | 0.00 | 0.23 | 0.20 | 39 | 1008.1 |
| 20260508004504 | 13 | 290 | 3.2 | 4.8 | 0.00 | 0.23 | 0.20 | 39 | 1008.0 |
| 20260508003504 | 13 | 287 | 3.2 | 8.0 | 0.00 | 0.23 | 0.20 | 38 | 1007.9 |
| 20260508003008 | 13 | 244 | 8.0 | 16.1 | 0.00 | 0.23 | 0.20 | 38 | 1007.8 |
| 20260508002504 | 13 | 244 | 4.8 | 12.9 | 0.00 | 0.23 | 0.20 | 38 | 1007.7 |
| 20260508002008 | 13 | 274 | 3.2 | 9.7 | 0.00 | 0.23 | 0.20 | 39 | 1007.6 |
| 20260508001504 | 13 | 235 | 3.2 | 4.8 | 0.00 | 0.23 | 0.20 | 39 | 1007.5 |
| 20260508000504 | 13 | 236 | 3.2 | 4.8 | 0.00 | 0.25 | 0.20 | 37 | 1007.5 |
| 20260507235504 | 14 | 287 | 1.6 | 4.8 | 0.00 | 0.25 | 0.20 | 36 | 1007.4 |
| 20260507235008 | 14 | 240 | 3.2 | 4.8 | 0.00 | 0.25 | 0.20 | 36 | 1007.4 |
| 20260507234504 | 14 | 270 | 4.8 | 11.3 | 0.00 | 0.25 | 0.20 | 35 | 1007.3 |
| 20260507234037 | 15 | 268 | 6.4 | 11.3 | 0.00 | 0.25 | 0.20 | 35 | 1007.3 |
| 20260507233514 | 15 | 294 | 3.2 | 11.3 | 0.00 | 0.25 | 0.20 | 35 | 1007.2 |
| 20260507233008 | 15 | 274 | 6.4 | 16.1 | 0.00 | 0.28 | 0.20 | 34 | 1007.3 |
| 20260507232504 | 15 | 258 | 3.2 | 11.3 | 0.00 | 0.30 | 0.20 | 34 | 1007.3 |
| 20260507232008 | 15 | 275 | 4.8 | 16.1 | 0.00 | 0.30 | 0.20 | 33 | 1007.2 |
| 20260507231007 | 16 | 332 | 3.2 | 4.8 | 0.00 | 0.33 | 0.20 | 32 | 1007.0 |
| 20260507230504 | 16 | 316 | 3.2 | 9.7 | 0.00 | 0.33 | 0.20 | 32 | 1006.9 |
| 20260507225504 | 16 | 322 | 4.8 | 20.9 | 0.00 | 0.33 | 0.20 | 32 | 1006.9 |
| 20260507225008 | 16 | 294 | 3.2 | 12.9 | 0.00 | 0.33 | 0.20 | 32 | 1006.8 |
| 20260507224504 | 16 | 289 | 4.8 | 19.3 | 0.00 | 0.33 | 0.20 | 31 | 1006.9 |
| 20260507224008 | 16 | 268 | 9.7 | 20.9 | 0.00 | 0.33 | 0.20 | 31 | 1006.9 |
| 20260507223504 | 16 | 268 | 8.0 | 22.5 | 0.00 | 0.33 | 0.20 | 31 | 1006.8 |
| 20260507223008 | 16 | 262 | 4.8 | 19.3 | 0.00 | 0.33 | 0.20 | 32 | 1006.7 |
| 20260507221504 | 16 | 260 | 9.7 | 29.0 | 0.00 | 0.33 | 0.20 | 30 | 1006.6 |
| 20260507221008 | 16 | 280 | 9.7 | 22.5 | 0.00 | 0.33 | 0.20 | 30 | 1006.5 |
| 20260507220504 | 16 | 267 | 9.7 | 19.3 | 0.00 | 0.33 | 0.20 | 30 | 1006.5 |
| 20260507215504 | 16 | 253 | 9.7 | 27.4 | 0.00 | 0.36 | 0.20 | 30 | 1006.4 |
| 20260507215008 | 17 | 260 | 14.5 | 27.4 | 0.00 | 0.36 | 0.20 | 30 | 1006.3 |
| 20260507214504 | 17 | 315 | 12.9 | 32.2 | 0.00 | 0.36 | 0.20 | 30 | 1006.3 |
| 20260507214008 | 16 | 311 | 8.0 | 22.5 | 0.00 | 0.36 | 0.20 | 31 | 1006.2 |
| 20260507213504 | 16 | 252 | 16.1 | 22.5 | 0.00 | 0.36 | 0.20 | 31 | 1006.3 |
| 20260507213009 | 17 | 284 | 11.3 | 29.0 | 0.00 | 0.36 | 0.20 | 31 | 1006.2 |
| 20260507212505 | 17 | 258 | 11.3 | 22.5 | 0.00 | 0.36 | 0.20 | 31 | 1006.1 |
| 20260507212007 | 17 | 258 | 9.7 | 19.3 | 0.00 | 0.36 | 0.20 | 31 | 1006.1 |
| 20260507211008 | 17 | 332 | 6.4 | 12.9 | 0.00 | 0.36 | 0.20 | 31 | 1005.9 |
| 20260507210504 | 17 | 278 | 6.4 | 14.5 | 0.00 | 0.36 | 0.20 | 32 | 1006.1 |
| 20260507210005 | 17 | 254 | 11.3 | 22.5 | 0.00 | 0.36 | 0.20 | 31 | 1006.0 |
| 20260507205504 | 17 | 244 | 12.9 | 20.9 | 0.00 | 0.36 | 0.20 | 31 | 1006.1 |
| 20260507205009 | 17 | 284 | 12.9 | 20.9 | 0.00 | 0.36 | 0.20 | 30 | 1006.0 |
| 20260507204505 | 17 | 286 | 9.7 | 19.3 | 0.00 | 0.36 | 0.20 | 31 | 1006.1 |
| 20260507204008 | 17 | 252 | 9.7 | 20.9 | 0.00 | 0.36 | 0.20 | 31 | 1006.0 |
| 20260507203504 | 17 | 258 | 11.3 | 20.9 | 0.00 | 0.36 | 0.20 | 31 | 1006.1 |
| 20260507203010 | 17 | 288 | 6.4 | 20.9 | 0.00 | 0.36 | 0.20 | 31 | 1006.1 |
| 20260507202505 | 17 | 253 | 9.7 | 20.9 | 0.00 | 0.36 | 0.20 | 29 | 1006.0 |
| 20260507202009 | 17 | 273 | 8.0 | 19.3 | 0.00 | 0.36 | 0.20 | 29 | 1006.1 |
| 20260507201504 | 17 | 280 | 4.8 | 20.9 | 0.00 | 0.36 | 0.20 | 30 | 1006.1 |
| 20260507201008 | 17 | 286 | 4.8 | 27.4 | 0.00 | 0.38 | 0.20 | 30 | 1006.1 |
| 20260507200504 | 17 | 281 | 11.3 | 20.9 | 0.00 | 0.38 | 0.20 | 30 | 1006.1 |
| 20260507200004 | 17 | 272 | 4.8 | 19.3 | 0.00 | 0.38 | 0.20 | 29 | 1006.2 |
| 20260507195505 | 17 | 327 | 8.0 | 16.1 | 0.00 | 0.38 | 0.20 | 29 | 1006.2 |
| 20260507195009 | 17 | 327 | 8.0 | 19.3 | 0.00 | 0.38 | 0.20 | 30 | 1006.4 |
| 20260507194505 | 17 | 253 | 11.3 | 22.5 | 0.00 | 0.38 | 0.20 | 30 | 1006.5 |
| 20260507194009 | 17 | 270 | 9.7 | 19.3 | 0.00 | 0.41 | 0.20 | 29 | 1006.4 |
| 20260507193505 | 17 | 286 | 9.7 | 24.1 | 0.00 | 0.41 | 0.20 | 29 | 1006.4 |
| 20260507193008 | 17 | 277 | 9.7 | 19.3 | 0.00 | 0.41 | 0.20 | 29 | 1006.5 |
| 20260507192505 | 17 | 329 | 9.7 | 16.1 | 0.00 | 0.41 | 0.20 | 28 | 1006.6 |
| 20260507191505 | 17 | 346 | 6.4 | 20.9 | 0.00 | 0.41 | 0.20 | 28 | 1006.7 |
| 20260507191009 | 18 | 279 | 9.7 | 29.0 | 0.00 | 0.41 | 0.20 | 29 | 1006.8 |
| 20260507185504 | 17 | 354 | 8.0 | 19.3 | 0.00 | 0.41 | 0.20 | 30 | 1006.9 |
| 20260507185008 | 17 | 289 | 12.9 | 29.0 | 0.00 | 0.41 | 0.20 | 29 | 1007.0 |
| 20260507184504 | 17 | 317 | 8.0 | 19.3 | 0.00 | 0.41 | 0.20 | 30 | 1006.9 |
| 20260507184009 | 17 | 272 | 9.7 | 22.5 | 0.00 | 0.41 | 0.20 | 31 | 1006.9 |
| 20260507183505 | 17 | 280 | 11.3 | 22.5 | 0.00 | 0.41 | 0.20 | 32 | 1006.8 |
| 20260507183009 | 17 | 250 | 17.7 | 32.2 | 0.00 | 0.41 | 0.20 | 31 | 1006.9 |
| 20260507182504 | 17 | 300 | 12.9 | 22.5 | 0.00 | 0.41 | 0.20 | 31 | 1006.7 |
| 20260507182009 | 17 | 316 | 3.2 | 19.3 | 0.00 | 0.41 | 0.20 | 32 | 1006.8 |
| 20260507181008 | 17 | 313 | 8.0 | 25.7 | 0.00 | 0.41 | 0.20 | 34 | 1006.9 |
| 20260507180504 | 17 | 326 | 8.0 | 22.5 | 0.00 | 0.41 | 0.20 | 35 | 1006.9 |
| 20260507180004 | 17 | 335 | 6.4 | 19.3 | 0.00 | 0.41 | 0.20 | 35 | 1006.9 |
| 20260507175504 | 17 | 274 | 9.7 | 19.3 | 0.00 | 0.41 | 0.20 | 36 | 1007.1 |
| 20260507175009 | 17 | 327 | 9.7 | 20.9 | 0.00 | 0.41 | 0.20 | 35 | 1006.9 |
| 20260507174505 | 17 | 273 | 14.5 | 22.5 | 0.00 | 0.41 | 0.20 | 36 | 1007.0 |
| 20260507173504 | 17 | 240 | 9.7 | 22.5 | 0.00 | 0.41 | 0.20 | 39 | 1006.9 |
| 20260507173008 | 17 | 251 | 8.0 | 19.3 | 0.00 | 0.41 | 0.20 | 39 | 1006.8 |
| 20260507172504 | 17 | 273 | 8.0 | 20.9 | 0.00 | 0.41 | 0.20 | 42 | 1007.0 |
| 20260507172008 | 16 | 289 | 9.7 | 20.9 | 0.00 | 0.41 | 0.20 | 42 | 1006.9 |
| 20260507171504 | 17 | 226 | 9.7 | 20.9 | 0.00 | 0.41 | 0.20 | 44 | 1007.1 |
| 20260507171008 | 16 | 305 | 11.3 | 20.9 | 0.00 | 0.41 | 0.20 | 48 | 1007.2 |
| 20260507170504 | 16 | 238 | 8.0 | 16.1 | 0.00 | 0.41 | 0.20 | 48 | 1007.2 |
| 20260507170004 | 16 | 297 | 9.7 | 24.1 | 0.00 | 0.41 | 0.20 | 46 | 1007.1 |
| 20260507165504 | 15 | 314 | 8.0 | 19.3 | 0.00 | 0.41 | 0.20 | 49 | 1007.2 |
| 20260507165008 | 15 | 268 | 14.5 | 25.7 | 0.00 | 0.41 | 0.20 | 50 | 1007.3 |
| 20260507164505 | 15 | 267 | 9.7 | 20.9 | 0.00 | 0.41 | 0.20 | 50 | 1007.3 |
| 20260507163504 | 16 | 257 | 9.7 | 22.5 | 0.00 | 0.41 | 0.20 | 51 | 1007.5 |
| 20260507163009 | 15 | 245 | 4.8 | 14.5 | 0.00 | 0.41 | 0.20 | 53 | 1007.5 |
| 20260507162505 | 15 | 241 | 4.8 | 12.9 | 0.00 | 0.41 | 0.20 | 53 | 1007.6 |
| 20260507162008 | 16 | 261 | 4.8 | 14.5 | 0.00 | 0.41 | 0.20 | 52 | 1007.7 |
| 20260507161008 | 16 | 294 | 8.0 | 16.1 | 0.00 | 0.41 | 0.20 | 50 | 1007.7 |
| 20260507160504 | 16 | 249 | 1.6 | 9.7 | 0.00 | 0.41 | 0.20 | 54 | 1007.9 |
| 20260507160005 | 15 | 320 | 4.8 | 12.9 | 0.00 | 0.41 | 0.20 | 54 | 1007.9 |
| 20260507155008 | 15 | 244 | 9.7 | 19.3 | 0.00 | 0.41 | 0.20 | 52 | 1008.1 |
| 20260507154504 | 15 | 294 | 9.7 | 19.3 | 0.00 | 0.41 | 0.20 | 51 | 1008.1 |
| 20260507154009 | 15 | 245 | 8.0 | 19.3 | 0.00 | 0.41 | 0.20 | 52 | 1008.0 |
| 20260507153505 | 15 | 268 | 4.8 | 14.5 | 0.00 | 0.41 | 0.20 | 52 | 1008.1 |
| 20260507153008 | 15 | 283 | 9.7 | 19.3 | 0.00 | 0.41 | 0.20 | 52 | 1008.1 |
| 20260507152504 | 15 | 251 | 8.0 | 14.5 | 0.00 | 0.41 | 0.20 | 52 | 1008.2 |
| 20260507151008 | 16 | 275 | 8.0 | 19.3 | 0.00 | 0.41 | 0.20 | 49 | 1008.4 |
| 20260507150005 | 15 | 324 | 9.7 | 19.3 | 0.00 | 0.41 | 0.20 | 49 | 1008.4 |
| 20260507145504 | 15 | 257 | 8.0 | 20.9 | 0.00 | 0.41 | 0.20 | 49 | 1008.5 |
| 20260507145008 | 15 | 273 | 4.8 | 24.1 | 0.00 | 0.41 | 0.20 | 50 | 1008.5 |
| 20260507144504 | 15 | 302 | 4.8 | 16.1 | 0.00 | 0.41 | 0.20 | 50 | 1008.6 |
| 20260507143505 | 14 | 289 | 8.0 | 16.1 | 0.00 | 0.41 | 0.20 | 51 | 1008.6 |
| 20260507143008 | 14 | 282 | 8.0 | 19.3 | 0.00 | 0.41 | 0.20 | 52 | 1008.6 |
| 20260507142505 | 14 | 254 | 4.8 | 14.5 | 0.00 | 0.41 | 0.20 | 53 | 1008.6 |
| 20260507142008 | 13 | 348 | 4.8 | 14.5 | 0.00 | 0.41 | 0.20 | 53 | 1008.7 |
| 20260507141504 | 14 | 245 | 11.3 | 20.9 | 0.00 | 0.41 | 0.20 | 52 | 1008.6 |
| 20260507141009 | 14 | 306 | 3.2 | 19.3 | 0.00 | 0.41 | 0.20 | 54 | 1008.6 |
| 20260507140505 | 14 | 270 | 4.8 | 19.3 | 0.00 | 0.41 | 0.20 | 54 | 1008.6 |
| 20260507140004 | 13 | 278 | 8.0 | 16.1 | 0.00 | 0.41 | 0.20 | 55 | 1008.6 |
| 20260507135504 | 13 | 230 | 3.2 | 9.7 | 0.00 | 0.41 | 0.20 | 57 | 1008.6 |
| 20260507135008 | 13 | 310 | 3.2 | 4.8 | 0.00 | 0.41 | 0.20 | 60 | 1008.6 |
| 20260507134504 | 13 | 42 | 3.2 | 14.5 | 0.00 | 0.41 | 0.20 | 60 | 1008.6 |
| 20260507134009 | 13 | 352 | 8.0 | 14.5 | 0.00 | 0.41 | 0.20 | 59 | 1008.7 |
| 20260507133505 | 13 | 332 | 6.4 | 16.1 | 0.00 | 0.41 | 0.20 | 61 | 1008.7 |
| 20260507133008 | 13 | 319 | 3.2 | 9.7 | 0.00 | 0.41 | 0.20 | 63 | 1008.8 |
| 20260507132504 | 12 | 336 | 6.4 | 16.1 | 0.00 | 0.41 | 0.20 | 64 | 1008.9 |
| 20260507132008 | 12 | 342 | 3.2 | 8.0 | 0.00 | 0.41 | 0.20 | 64 | 1008.9 |
| 20260507131504 | 12 | 331 | 3.2 | 11.3 | 0.00 | 0.41 | 0.20 | 64 | 1008.9 |
| 20260507131008 | 12 | 1 | 4.8 | 9.7 | 0.00 | 0.41 | 0.20 | 64 | 1009.0 |
| 20260507130504 | 12 | 320 | 3.2 | 11.3 | 0.00 | 0.41 | 0.20 | 68 | 1009.0 |
| 20260507130005 | 11 | 271 | 4.8 | 9.7 | 0.00 | 0.41 | 0.20 | 70 | 1009.1 |
| 20260507125008 | 11 | 303 | 4.8 | 11.3 | 0.00 | 0.41 | 0.20 | 75 | 1009.2 |
| 20260507124505 | 11 | 323 | 1.6 | 8.0 | 0.00 | 0.41 | 0.20 | 77 | 1009.2 |
| 20260507124008 | 10 | 275 | 4.8 | 19.3 | 0.00 | 0.41 | 0.20 | 79 | 1009.2 |
| 20260507123505 | 10 | 318 | 4.8 | 14.5 | 0.00 | 0.41 | 0.20 | 79 | 1009.1 |
| 20260507123008 | 10 | 291 | 3.2 | 14.5 | 0.00 | 0.41 | 0.20 | 83 | 1008.9 |
| 20260507122504 | 10 | 283 | 4.8 | 9.7 | 0.00 | 0.41 | 0.20 | 84 | 1009.1 |
| 20260507122008 | 10 | 301 | 4.8 | 8.0 | 0.00 | 0.41 | 0.20 | 85 | 1009.0 |
| 20260507121504 | 10 | 318 | 4.8 | 12.9 | 0.00 | 0.41 | 0.20 | 85 | 1009.0 |
| 20260507121008 | 9 | 272 | 4.8 | 12.9 | 0.00 | 0.41 | 0.20 | 86 | 1009.0 |
| 20260507120504 | 9 | 287 | 6.4 | 14.5 | 0.00 | 0.41 | 0.20 | 87 | 1008.9 |
| 20260507120005 | 9 | 271 | 3.2 | 11.3 | 0.00 | 0.41 | 0.20 | 88 | 1008.9 |
| 20260507115504 | 9 | 285 | 4.8 | 11.3 | 0.00 | 0.41 | 0.20 | 89 | 1009.0 |
| 20260507115008 | 9 | 287 | 3.2 | 11.3 | 0.00 | 0.41 | 0.20 | 89 | 1009.0 |
| 20260507114504 | 8 | 279 | 4.8 | 9.7 | 0.00 | 0.41 | 0.20 | 89 | 1008.8 |
| 20260507114008 | 8 | 285 | 3.2 | 4.8 | 0.00 | 0.41 | 0.20 | 90 | 1008.8 |
| 20260507113504 | 8 | 285 | 4.8 | 11.3 | 0.00 | 0.41 | 0.20 | 90 | 1009.0 |
| 20260507112504 | 8 | 278 | 3.2 | 4.8 | 0.00 | 0.41 | 0.20 | 91 | 1008.7 |
| 20260507112008 | 8 | 274 | 3.2 | 4.8 | 0.00 | 0.41 | 0.20 | 91 | 1008.7 |
| 20260507111504 | 8 | 295 | 1.6 | 4.8 | 0.00 | 0.41 | 0.20 | 91 | 1008.6 |
| 20260507111007 | 8 | 263 | 1.6 | 4.8 | 0.00 | 0.41 | 0.20 | 91 | 1008.7 |
| 20260507110005 | 8 | 264 | 1.6 | 4.8 | 0.03 | 0.41 | 0.20 | 91 | 1008.8 |
| 20260507105504 | 8 | 289 | 1.6 | 4.8 | 0.03 | 0.41 | 0.20 | 91 | 1008.9 |
| 20260507105008 | 8 | 264 | 1.6 | 4.8 | 0.05 | 0.41 | 0.20 | 92 | 1009.0 |
| 20260507104504 | 8 | 264 | 1.6 | 3.2 | 0.05 | 0.41 | 0.20 | 91 | 1009.0 |
| 20260507103008 | 8 | 298 | 3.2 | 4.8 | 0.05 | 0.41 | 0.20 | 91 | 1008.5 |
| 20260507102509 | 8 | 299 | 0.0 | 1.6 | 0.08 | 0.41 | 0.20 | 91 | 1008.3 |
| 20260507102008 | 8 | 300 | 3.2 | 4.8 | 0.10 | 0.41 | 0.20 | 91 | 1008.4 |
| 20260507101508 | 8 | 295 | 3.2 | 11.3 | 0.13 | 0.41 | 0.20 | 91 | 1008.6 |
| 20260507101042 | 8 | 284 | 1.6 | 4.8 | 0.13 | 0.41 | 0.20 | 91 | 1008.5 |
| 20260507100504 | 9 | 284 | 3.2 | 4.8 | 0.10 | 0.38 | 0.18 | 90 | 1008.3 |
| 20260507100004 | 9 | 253 | 0.0 | 4.8 | 0.13 | 0.38 | 0.18 | 90 | 1008.2 |
| 20260507095007 | 9 | 280 | 3.2 | 9.7 | 0.10 | 0.36 | 0.15 | 90 | 1008.1 |
| 20260507094503 | 9 | 314 | 3.2 | 9.7 | 0.10 | 0.36 | 0.15 | 90 | 1008.0 |
| 20260507094008 | 9 | 298 | 8.0 | 14.5 | 0.10 | 0.36 | 0.15 | 90 | 1008.3 |
| 20260507093504 | 9 | 261 | 3.2 | 14.5 | 0.10 | 0.36 | 0.15 | 90 | 1008.3 |
| 20260507093008 | 10 | 282 | 3.2 | 9.7 | 0.10 | 0.36 | 0.15 | 90 | 1008.2 |
| 20260507092504 | 10 | 267 | 1.6 | 4.8 | 0.08 | 0.33 | 0.13 | 90 | 1008.2 |
| 20260507092008 | 10 | 266 | 1.6 | 4.8 | 0.05 | 0.30 | 0.10 | 89 | 1008.2 |
| 20260507091504 | 10 | 294 | 1.6 | 3.2 | 0.05 | 0.28 | 0.08 | 89 | 1008.3 |
| 20260507090504 | 10 | 266 | 4.8 | 8.0 | 0.05 | 0.28 | 0.08 | 89 | 1008.5 |
| 20260507085504 | 10 | 243 | 4.8 | 11.3 | 0.03 | 0.25 | 0.05 | 89 | 1008.2 |
| 20260507085008 | 10 | 236 | 3.2 | 12.9 | 0.03 | 0.25 | 0.05 | 89 | 1008.3 |
| 20260507084504 | 10 | 275 | 3.2 | 9.7 | 0.05 | 0.25 | 0.05 | 89 | 1008.2 |
| 20260507084009 | 10 | 268 | 4.8 | 9.7 | 0.05 | 0.25 | 0.05 | 89 | 1008.0 |
| 20260507083505 | 10 | 271 | 1.6 | 11.3 | 0.05 | 0.25 | 0.05 | 89 | 1008.1 |
| 20260507083009 | 10 | 281 | 3.2 | 16.1 | 0.05 | 0.25 | 0.05 | 89 | 1007.9 |
| 20260507082505 | 10 | 281 | 3.2 | 8.0 | 0.05 | 0.25 | 0.05 | 89 | 1007.8 |
| 20260507082008 | 10 | 280 | 3.2 | 12.9 | 0.05 | 0.25 | 0.05 | 88 | 1007.7 |
| 20260507081505 | 10 | 278 | 1.6 | 12.9 | 0.03 | 0.23 | 0.03 | 88 | 1007.7 |
| 20260507081008 | 11 | 295 | 1.6 | 4.8 | 0.03 | 0.23 | 0.03 | 87 | 1007.9 |
| 20260507080006 | 11 | 326 | 3.2 | 9.7 | 0.03 | 0.23 | 0.03 | 86 | 1008.0 |
| 20260507075504 | 11 | 308 | 3.2 | 9.7 | 0.03 | 0.23 | 0.03 | 85 | 1007.9 |
| 20260507075010 | 11 | 299 | 3.2 | 9.7 | 0.03 | 0.23 | 0.03 | 84 | 1007.7 |
| 20260507074513 | 11 | 270 | 4.8 | 12.9 | 0.00 | 0.20 | 0.00 | 83 | 1008.0 |
| 20260507074029 | 11 | 270 | 4.8 | 12.9 | 0.00 | 0.20 | 0.00 | 84 | 1008.0 |
| 20260507073514 | 11 | 271 | 8.0 | 19.3 | 0.00 | 0.20 | 0.00 | 84 | 1007.6 |
| 20260507073049 | 11 | 326 | 4.8 | 8.0 | 0.00 | 0.20 | 0.00 | 85 | 1007.2 |
| 20260507072505 | 11 | 309 | 3.2 | 4.8 | 0.00 | 0.20 | 0.00 | 85 | 1007.1 |
| 20260507072009 | 11 | 329 | 1.6 | 4.8 | 0.00 | 0.20 | 0.00 | 86 | 1007.3 |
| 20260507071505 | 11 | 285 | 3.2 | 12.9 | 0.00 | 0.20 | 0.00 | 86 | 1007.3 |
| 20260507071009 | 11 | 266 | 4.8 | 12.9 | 0.00 | 0.20 | 0.00 | 86 | 1007.4 |
| 20260507070009 | 12 | 287 | 3.2 | 8.0 | 0.00 | 0.20 | 0.00 | 87 | 1007.1 |
| 20260507065504 | 12 | 268 | 4.8 | 9.7 | 0.00 | 0.20 | 0.00 | 87 | 1007.2 |
| 20260507065008 | 12 | 277 | 1.6 | 9.7 | 0.00 | 0.20 | 0.00 | 86 | 1007.2 |
| 20260507064505 | 12 | 316 | 1.6 | 14.5 | 0.00 | 0.20 | 0.00 | 86 | 1007.2 |
| 20260507064008 | 12 | 265 | 3.2 | 12.9 | 0.00 | 0.20 | 0.00 | 87 | 1007.2 |
| 20260507063504 | 12 | 267 | 3.2 | 11.3 | 0.00 | 0.20 | 0.00 | 87 | 1007.2 |
| 20260507063008 | 12 | 264 | 4.8 | 12.9 | 0.00 | 0.20 | 0.00 | 87 | 1007.2 |
| 20260507062009 | 12 | 288 | 3.2 | 4.8 | 0.00 | 0.20 | 0.00 | 89 | 1006.8 |
| 20260507061505 | 12 | 311 | 3.2 | 4.8 | 0.00 | 0.20 | 0.00 | 89 | 1007.0 |
| 20260507061009 | 12 | 299 | 3.2 | 4.8 | 0.00 | 0.20 | 0.00 | 89 | 1007.0 |
| 20260507060505 | 13 | 291 | 3.2 | 4.8 | 0.00 | 0.20 | 0.00 | 90 | 1007.0 |
| 20260507060004 | 13 | 285 | 1.6 | 9.7 | 0.00 | 0.20 | 0.00 | 90 | 1007.1 |
| 20260507055009 | 13 | 289 | 4.8 | 12.9 | 0.00 | 0.20 | 0.00 | 89 | 1007.3 |
| 20260507054505 | 13 | 322 | 3.2 | 4.8 | 0.00 | 0.20 | 0.00 | 89 | 1007.5 |
| 20260507054008 | 13 | 295 | 8.0 | 16.1 | 0.00 | 0.20 | 0.00 | 89 | 1007.5 |
| 20260507053504 | 13 | 315 | 3.2 | 14.5 | 0.00 | 0.20 | 0.00 | 89 | 1007.3 |
| 20260507053008 | 13 | 265 | 4.8 | 16.1 | 0.00 | 0.20 | 0.00 | 89 | 1007.2 |
| 20260507052008 | 13 | 276 | 1.6 | 14.5 | 0.00 | 0.20 | 0.00 | 88 | 1006.9 |
| 20260507051008 | 13 | 279 | 8.0 | 19.3 | 0.00 | 0.20 | 0.00 | 88 | 1007.1 |
| 20260507050505 | 13 | 272 | 8.0 | 14.5 | 0.00 | 0.20 | 0.00 | 87 | 1007.1 |
| 20260507050005 | 13 | 278 | 4.8 | 11.3 | 0.00 | 0.20 | 0.00 | 87 | 1007.2 |
| 20260507045505 | 13 | 271 | 9.7 | 20.9 | 0.00 | 0.20 | 0.00 | 86 | 1007.3 |
| 20260507045008 | 13 | 260 | 8.0 | 27.4 | 0.00 | 0.20 | 0.00 | 87 | 1007.2 |
| 20260507044504 | 14 | 258 | 9.7 | 19.3 | 0.00 | 0.20 | 0.00 | 90 | 1007.2 |
| 20260507044008 | 14 | 254 | 6.4 | 19.3 | 0.00 | 0.20 | 0.00 | 92 | 1007.0 |
| 20260507043505 | 14 | 263 | 4.8 | 11.3 | 0.03 | 0.20 | 0.00 | 93 | 1006.9 |
| 20260507042504 | 14 | 263 | 4.8 | 11.3 | 0.03 | 0.20 | 0.00 | 93 | 1006.9 |
| 20260507042008 | 15 | 269 | 4.8 | 8.0 | 0.03 | 0.20 | 0.00 | 93 | 1007.1 |
| 20260507041504 | 15 | 238 | 3.2 | 9.7 | 0.03 | 0.20 | 0.00 | 93 | 1007.0 |
| 20260507041008 | 15 | 275 | 3.2 | 9.7 | 0.03 | 0.20 | 0.00 | 93 | 1007.1 |
| 20260507040505 | 15 | 266 | 4.8 | 11.3 | 0.03 | 0.20 | 0.00 | 93 | 1007.2 |
| 20260507040004 | 15 | 265 | 3.2 | 11.3 | 0.03 | 0.20 | 0.00 | 93 | 1007.1 |
| 20260507035008 | 15 | 256 | 8.0 | 14.5 | 0.03 | 0.20 | 0.20 | 93 | 1007.1 |
| 20260507034504 | 15 | 253 | 6.4 | 9.7 | 0.03 | 0.20 | 0.20 | 93 | 1006.8 |
| 20260507034008 | 15 | 239 | 8.0 | 16.1 | 0.03 | 0.20 | 0.20 | 93 | 1007.0 |
| 20260507033009 | 15 | 276 | 6.4 | 11.3 | 0.00 | 0.18 | 0.18 | 92 | 1006.9 |
| 20260507032504 | 15 | 303 | 4.8 | 19.3 | 0.00 | 0.18 | 0.18 | 92 | 1006.7 |
| 20260507032008 | 15 | 285 | 6.4 | 12.9 | 0.00 | 0.18 | 0.18 | 92 | 1006.4 |
| 20260507031504 | 15 | 285 | 6.4 | 16.1 | 0.00 | 0.18 | 0.18 | 92 | 1006.4 |
| 20260507031008 | 15 | 306 | 4.8 | 19.3 | 0.00 | 0.18 | 0.18 | 92 | 1006.2 |
| 20260507030505 | 15 | 248 | 4.8 | 19.3 | 0.00 | 0.18 | 0.18 | 92 | 1006.0 |